Time,TemperatureF,DewpointF,PressureIn,WindDirection,WindDirectionDegrees,WindSpeedMPH,WindSpeedGustMPH,Humidity,HourlyPrecipIn,Conditions,Clouds,dailyrainin,SoftwareType,DateUTC
2013-06-29 00:01:00,80.0,78.0,29.67,SSW,208,24.0,29.0,92,0.00,,,0.00,weatherlink.com 1.10,2013-06-29 04:01:00,
2013-06-29 00:16:00,79.8,77.0,29.66,SSW,207,27.0,33.0,92,0.00,,,0.00,weatherlink.com 1.10,2013-06-29 04:16:00,
2013-06-29 00:31:00,79.8,77.0,29.67,SSW,202,24.0,29.0,92,0.00,,,0.00,weatherlink.com 1.10,2013-06-29 04:31:00,
2013-06-29 00:46:00,79.7,77.0,29.66,SSW,194,23.0,31.0,92,0.00,,,0.00,weatherlink.com 1.10,2013-06-29 04:46:00,
2013-06-29 01:01:00,79.7,77.0,29.66,SSW,203,24.0,33.0,92,0.00,,,0.00,weatherlink.com 1.10,2013-06-29 05:01:00,
2013-06-29 01:16:00,79.6,77.0,29.65,SSW,208,35.0,35.0,91,0.00,,,0.00,weatherlink.com 1.10,2013-06-29 05:16:00,
2013-06-29 01:31:00,79.6,77.0,29.65,SW,221,27.0,34.0,92,0.00,,,0.00,weatherlink.com 1.10,2013-06-29 05:31:00,
2013-06-29 01:46:00,79.6,77.0,29.66,SSW,205,27.0,32.0,92,0.00,,,0.00,weatherlink.com 1.10,2013-06-29 05:46:00,
2013-06-29 02:01:00,79.5,77.0,29.66,SSW,206,23.0,33.0,92,0.00,,,0.00,weatherlink.com 1.10,2013-06-29 06:01:00,
2013-06-29 02:16:00,79.3,77.0,29.65,SSW,213,21.0,31.0,92,0.00,,,0.00,weatherlink.com 1.10,2013-06-29 06:16:00,
2013-06-29 02:31:00,79.3,77.0,29.65,SSW,198,27.0,32.0,92,0.00,,,0.00,weatherlink.com 1.10,2013-06-29 06:31:00,
2013-06-29 02:46:00,79.2,77.0,29.64,SSW,212,31.0,33.0,92,0.00,,,0.00,weatherlink.com 1.10,2013-06-29 06:46:00,
2013-06-29 03:01:00,79.2,77.0,29.64,SSW,211,24.0,33.0,92,0.00,,,0.00,weatherlink.com 1.10,2013-06-29 07:01:00,
2013-06-29 03:16:00,79.1,76.0,29.64,SSW,204,26.0,36.0,91,0.00,,,0.00,weatherlink.com 1.10,2013-06-29 07:16:00,
2013-06-29 03:31:00,79.1,76.0,29.65,SSW,208,23.0,38.0,91,0.00,,,0.00,weatherlink.com 1.10,2013-06-29 07:31:00,
2013-06-29 03:46:00,79.1,76.0,29.65,SSW,201,30.0,40.0,91,0.00,,,0.00,weatherlink.com 1.10,2013-06-29 07:46:00,
2013-06-29 04:01:00,79.1,76.0,29.65,SSW,208,26.0,35.0,91,0.00,,,0.00,weatherlink.com 1.10,2013-06-29 08:01:00,
2013-06-29 04:16:00,79.0,76.0,29.65,SSW,204,30.0,34.0,91,0.00,,,0.00,weatherlink.com 1.10,2013-06-29 08:16:00,
2013-06-29 04:31:00,79.1,76.0,29.66,SSW,209,31.0,35.0,90,0.00,,,0.00,weatherlink.com 1.10,2013-06-29 08:31:00,
2013-06-29 04:46:00,79.1,76.0,29.66,SSW,203,23.0,35.0,90,0.00,,,0.00,weatherlink.com 1.10,2013-06-29 08:46:00,
2013-06-29 05:01:00,79.2,76.0,29.67,SSW,204,23.0,30.0,90,0.00,,,0.00,weatherlink.com 1.10,2013-06-29 09:01:00,
2013-06-29 05:16:00,79.3,77.0,29.67,SW,214,20.0,30.0,91,0.00,,,0.00,weatherlink.com 1.10,2013-06-29 09:16:00,
2013-06-29 05:31:00,79.4,77.0,29.67,SW,215,26.0,33.0,91,0.00,,,0.00,weatherlink.com 1.10,2013-06-29 09:31:00,
2013-06-29 05:46:00,79.5,77.0,29.67,SSW,207,24.0,31.0,91,0.00,,,0.00,weatherlink.com 1.10,2013-06-29 09:46:00,
2013-06-29 06:01:00,79.6,77.0,29.67,SSW,209,25.0,29.0,90,0.00,,,0.00,weatherlink.com 1.10,2013-06-29 10:01:00,
2013-06-29 06:16:00,79.6,76.0,29.68,SSW,207,19.0,28.0,88,0.00,,,0.00,weatherlink.com 1.10,2013-06-29 10:16:00,
2013-06-29 06:31:00,79.9,76.0,29.68,SW,219,21.0,26.0,88,0.00,,,0.00,weatherlink.com 1.10,2013-06-29 10:31:00,
2013-06-29 06:46:00,79.7,76.0,29.68,SW,215,19.0,24.0,88,0.00,,,0.00,weatherlink.com 1.10,2013-06-29 10:46:00,
2013-06-29 07:01:00,79.8,76.0,29.68,SW,215,21.0,27.0,89,0.00,,,0.00,weatherlink.com 1.10,2013-06-29 11:01:00,
2013-06-29 07:16:00,79.6,76.0,29.67,SSW,209,17.0,27.0,89,0.00,,,0.00,weatherlink.com 1.10,2013-06-29 11:16:00,
2013-06-29 07:31:00,79.3,76.0,29.67,SW,215,21.0,31.0,88,0.00,,,0.00,weatherlink.com 1.10,2013-06-29 11:31:00,
2013-06-29 07:46:00,79.6,76.0,29.67,SSW,208,24.0,27.0,88,0.00,,,0.00,weatherlink.com 1.10,2013-06-29 11:46:00,
2013-06-29 08:01:00,79.7,75.0,29.67,SSW,212,23.0,33.0,84,0.00,,,0.00,weatherlink.com 1.10,2013-06-29 12:01:00,
2013-06-29 08:16:00,80.0,74.0,29.68,SW,229,27.0,31.0,83,0.00,,,0.00,weatherlink.com 1.10,2013-06-29 12:16:00,
2013-06-29 08:31:00,79.7,75.0,29.69,SSW,212,28.0,36.0,84,0.00,,,0.00,weatherlink.com 1.10,2013-06-29 12:31:00,
2013-06-29 08:46:00,79.3,74.0,29.69,SW,222,16.0,36.0,84,0.00,,,0.00,weatherlink.com 1.10,2013-06-29 12:46:00,
2013-06-29 09:01:00,79.2,74.0,29.70,WSW,239,21.0,30.0,83,0.00,,,0.00,weatherlink.com 1.10,2013-06-29 13:01:00,
2013-06-29 09:16:00,79.1,74.0,29.70,NNE,13,19.0,30.0,84,0.00,,,0.00,weatherlink.com 1.10,2013-06-29 13:16:00,
2013-06-29 09:31:00,78.7,74.0,29.70,WSW,238,19.0,26.0,84,0.00,,,0.00,weatherlink.com 1.10,2013-06-29 13:31:00,
2013-06-29 09:46:00,78.3,74.0,29.69,WSW,244,16.0,23.0,85,0.00,,,0.00,weatherlink.com 1.10,2013-06-29 13:46:00,
2013-06-29 10:01:00,77.7,73.0,29.70,WSW,254,15.0,20.0,86,0.00,,,0.00,weatherlink.com 1.10,2013-06-29 14:01:00,
2013-06-29 10:17:00,77.5,73.0,29.69,WSW,246,11.0,18.0,87,0.00,,,0.00,weatherlink.com 1.10,2013-06-29 14:17:00,
2013-06-29 10:32:00,77.5,74.0,29.69,SSW,208,9.0,14.0,88,0.00,,,0.00,weatherlink.com 1.10,2013-06-29 14:32:00,
2013-06-29 10:47:00,77.6,74.0,29.70,SSW,213,12.0,16.0,88,0.00,,,0.00,weatherlink.com 1.10,2013-06-29 14:47:00,
2013-06-29 11:02:00,78.0,74.0,29.71,SSW,210,11.0,18.0,88,0.00,,,0.00,weatherlink.com 1.10,2013-06-29 15:02:00,
2013-06-29 11:17:00,77.6,73.0,29.71,SW,215,14.0,19.0,86,0.00,,,0.00,weatherlink.com 1.10,2013-06-29 15:17:00,
2013-06-29 11:32:00,78.2,73.0,29.71,SSW,211,18.0,18.0,85,0.00,,,0.00,weatherlink.com 1.10,2013-06-29 15:32:00,
2013-06-29 11:47:00,78.7,74.0,29.70,SSW,211,14.0,17.0,84,0.00,,,0.00,weatherlink.com 1.10,2013-06-29 15:47:00,
2013-06-29 12:02:00,78.9,73.0,29.71,SSW,208,17.0,21.0,83,0.00,,,0.00,weatherlink.com 1.10,2013-06-29 16:02:00,
2013-06-29 12:17:00,79.4,74.0,29.70,South,180,15.0,23.0,84,0.00,,,0.00,weatherlink.com 1.10,2013-06-29 16:17:00,
2013-06-29 12:32:00,80.3,75.0,29.70,SSW,200,17.0,23.0,83,0.00,,,0.00,weatherlink.com 1.10,2013-06-29 16:32:00,
2013-06-29 12:47:00,80.7,76.0,29.71,South,180,16.0,23.0,84,0.00,,,0.00,weatherlink.com 1.10,2013-06-29 16:47:00,
2013-06-29 13:02:00,80.7,76.0,29.71,SSW,202,22.0,25.0,84,0.00,,,0.00,weatherlink.com 1.10,2013-06-29 17:02:00,
2013-06-29 13:17:00,80.6,76.0,29.72,SSW,205,16.0,25.0,85,0.00,,,0.00,weatherlink.com 1.10,2013-06-29 17:17:00,
2013-06-29 13:32:00,79.9,76.0,29.71,SSW,202,19.0,26.0,87,0.00,,,0.00,weatherlink.com 1.10,2013-06-29 17:32:00,
2013-06-29 13:47:00,80.1,76.0,29.71,SSW,199,24.0,27.0,86,0.00,,,0.00,weatherlink.com 1.10,2013-06-29 17:47:00,
2013-06-29 14:02:00,80.4,76.0,29.71,SSW,211,21.0,27.0,86,0.00,,,0.00,weatherlink.com 1.10,2013-06-29 18:02:00,
2013-06-29 14:17:00,80.6,76.0,29.71,SSW,213,21.0,27.0,86,0.00,,,0.00,weatherlink.com 1.10,2013-06-29 18:17:00,
2013-06-29 14:32:00,80.6,77.0,29.71,SSW,204,17.0,28.0,88,0.00,,,0.00,weatherlink.com 1.10,2013-06-29 18:32:00,
2013-06-29 14:47:00,80.3,76.0,29.71,SSE,163,21.0,29.0,87,0.00,,,0.00,weatherlink.com 1.10,2013-06-29 18:47:00,
2013-06-29 15:02:00,80.5,77.0,29.71,South,177,23.0,31.0,88,0.00,,,0.00,weatherlink.com 1.10,2013-06-29 19:02:00,
2013-06-29 15:17:00,80.9,77.0,29.71,SSW,198,28.0,32.0,87,0.00,,,0.00,weatherlink.com 1.10,2013-06-29 19:17:00,
2013-06-29 15:32:00,80.9,77.0,29.71,SSW,213,20.0,28.0,88,0.00,,,0.00,weatherlink.com 1.10,2013-06-29 19:32:00,
2013-06-29 15:47:00,80.5,77.0,29.71,South,178,23.0,29.0,88,0.00,,,0.00,weatherlink.com 1.10,2013-06-29 19:47:00,
2013-06-29 16:02:00,80.5,77.0,29.71,SSE,163,17.0,30.0,89,0.00,,,0.00,weatherlink.com 1.10,2013-06-29 20:02:00,
2013-06-29 16:17:00,80.9,78.0,29.70,South,178,19.0,29.0,89,0.00,,,0.00,weatherlink.com 1.10,2013-06-29 20:17:00,
2013-06-29 16:32:00,80.7,77.0,29.70,South,169,21.0,28.0,89,0.00,,,0.00,weatherlink.com 1.10,2013-06-29 20:32:00,
2013-06-29 16:47:00,80.1,77.0,29.70,SSW,204,21.0,29.0,89,0.00,,,0.00,weatherlink.com 1.10,2013-06-29 20:47:00,
2013-06-29 17:02:00,79.8,76.0,29.71,SSW,207,16.0,35.0,89,0.00,,,0.00,weatherlink.com 1.10,2013-06-29 21:02:00,
2013-06-29 17:17:00,79.1,76.0,29.71,South,178,19.0,29.0,90,0.00,,,0.00,weatherlink.com 1.10,2013-06-29 21:17:00,
2013-06-29 17:33:00,79.0,76.0,29.72,SSW,199,18.0,32.0,89,0.00,,,0.00,weatherlink.com 1.10,2013-06-29 21:33:00,
2013-06-29 17:47:00,79.0,76.0,29.71,SSW,202,19.0,27.0,90,0.00,,,0.00,weatherlink.com 1.10,2013-06-29 21:47:00,
2013-06-29 18:02:00,76.1,72.0,29.73,WSW,248,5.0,19.0,87,0.01,,,0.01,weatherlink.com 1.10,2013-06-29 22:02:00,
2013-06-29 18:17:00,78.6,76.0,29.72,SSW,193,19.0,21.0,90,0.01,,,0.01,weatherlink.com 1.10,2013-06-29 22:17:00,
2013-06-29 18:32:00,79.0,76.0,29.71,South,180,17.0,21.0,89,0.01,,,0.01,weatherlink.com 1.10,2013-06-29 22:32:00,
2013-06-29 18:47:00,79.1,76.0,29.72,SSE,168,16.0,24.0,89,0.01,,,0.01,weatherlink.com 1.10,2013-06-29 22:47:00,
2013-06-29 19:02:00,79.1,76.0,29.72,SSW,205,15.0,22.0,89,0.00,,,0.01,weatherlink.com 1.10,2013-06-29 23:02:00,
2013-06-29 19:17:00,79.0,75.0,29.72,South,169,15.0,19.0,88,0.00,,,0.01,weatherlink.com 1.10,2013-06-29 23:17:00,
2013-06-29 19:32:00,79.2,75.0,29.72,SSW,196,15.0,23.0,88,0.00,,,0.01,weatherlink.com 1.10,2013-06-29 23:32:00,
2013-06-29 19:47:00,79.3,76.0,29.73,SSW,193,18.0,26.0,89,0.00,,,0.01,weatherlink.com 1.10,2013-06-29 23:47:00,
2013-06-29 20:02:00,79.2,76.0,29.73,SSE,164,19.0,25.0,89,0.00,,,0.01,weatherlink.com 1.10,2013-06-30 00:02:00,
2013-06-29 20:17:00,76.5,72.0,29.75,SW,236,12.0,21.0,86,0.00,,,0.01,weatherlink.com 1.10,2013-06-30 00:17:00,
2013-06-29 20:32:00,75.3,71.0,29.75,WNW,292,4.0,7.0,86,0.00,,,0.01,weatherlink.com 1.10,2013-06-30 00:32:00,
2013-06-29 20:47:00,74.9,71.0,29.75,WNW,293,4.0,5.0,87,0.00,,,0.01,weatherlink.com 1.10,2013-06-30 00:47:00,
2013-06-29 21:02:00,78.0,76.0,29.75,SSW,205,13.0,14.0,92,0.00,,,0.01,weatherlink.com 1.10,2013-06-30 01:02:00,
2013-06-29 21:17:00,79.3,77.0,29.74,SSW,202,14.0,20.0,91,0.00,,,0.01,weatherlink.com 1.10,2013-06-30 01:17:00,
2013-06-29 21:32:00,79.3,77.0,29.75,SSW,199,12.0,21.0,92,0.00,,,0.01,weatherlink.com 1.10,2013-06-30 01:32:00,
2013-06-29 21:47:00,79.3,77.0,29.75,SSW,202,19.0,20.0,92,0.00,,,0.01,weatherlink.com 1.10,2013-06-30 01:47:00,
2013-06-29 22:02:00,79.4,76.0,29.76,SSW,196,21.0,27.0,90,0.00,,,0.01,weatherlink.com 1.10,2013-06-30 02:02:00,
2013-06-29 22:17:00,79.9,77.0,29.76,SSE,159,17.0,26.0,90,0.00,,,0.01,weatherlink.com 1.10,2013-06-30 02:17:00,
2013-06-29 22:32:00,79.9,77.0,29.77,SSW,202,13.0,23.0,91,0.00,,,0.01,weatherlink.com 1.10,2013-06-30 02:32:00,
2013-06-29 22:47:00,79.1,76.0,29.77,SE,146,20.0,25.0,91,0.00,,,0.01,weatherlink.com 1.10,2013-06-30 02:47:00,
2013-06-29 23:02:00,78.5,76.0,29.77,SSE,153,20.0,28.0,92,0.00,,,0.01,weatherlink.com 1.10,2013-06-30 03:02:00,
2013-06-29 23:17:00,78.5,76.0,29.78,SSE,165,26.0,27.0,92,0.00,,,0.01,weatherlink.com 1.10,2013-06-30 03:17:00,
2013-06-29 23:32:00,78.4,76.0,29.78,SE,146,20.0,27.0,92,0.00,,,0.01,weatherlink.com 1.10,2013-06-30 03:32:00,
2013-06-29 23:47:00,78.7,76.0,29.77,SSE,166,21.0,28.0,92,0.00,,,0.01,weatherlink.com 1.10,2013-06-30 03:47:00,